"Water temperature at three different depths in Oyako Ike, Skarvsnes, East Antarctica during JARE53-55",,,,
Temperature at 6.3 m depth indicates sediment temperature (the sensor was located in the lake sediments).,,,,
,,,,
,,,,
Date,Time,WT 1.5 m,WT 4.7 m,WT 6.3 m
YYYY/MM/DD,hh:mm:ss,(���j,(���j,(���j
,,,,
2012/1/17,12:00:00,2.553,2.552,2.872
2012/1/17,13:00:00,2.575,2.608,2.902
2012/1/17,14:00:00,2.612,2.834,2.911
2012/1/17,15:00:00,2.604,2.7,2.915
2012/1/17,16:00:00,2.716,2.92,2.917
2012/1/17,17:00:00,2.784,2.991,2.919
2012/1/17,18:00:00,2.822,2.911,2.919
2012/1/17,19:00:00,2.893,3.029,2.919
2012/1/17,20:00:00,2.886,2.924,2.919
2012/1/17,21:00:00,2.946,2.973,2.918
2012/1/17,22:00:00,2.893,2.908,2.918
2012/1/17,23:00:00,2.859,2.915,2.918
2012/1/18,0:00:00,2.835,2.837,2.917
2012/1/18,1:00:00,2.705,2.718,2.916
2012/1/18,2:00:00,2.691,2.686,2.916
2012/1/18,3:00:00,2.651,2.684,2.914
2012/1/18,4:00:00,2.645,2.702,2.914
2012/1/18,5:00:00,2.638,2.662,2.913
2012/1/18,6:00:00,2.588,2.602,2.912
2012/1/18,7:00:00,2.549,2.558,2.911
2012/1/18,8:00:00,2.534,2.528,2.91
2012/1/18,9:00:00,2.532,2.535,2.909
2012/1/18,10:00:00,2.566,2.555,2.908
2012/1/18,11:00:00,2.607,2.599,2.907
2012/1/18,12:00:00,2.691,2.673,2.907
2012/1/18,13:00:00,2.723,2.754,2.906
2012/1/18,14:00:00,2.741,2.763,2.905
2012/1/18,15:00:00,2.864,2.95,2.904
2012/1/18,16:00:00,3.015,3.166,2.903
2012/1/18,17:00:00,3.17,3.231,2.902
2012/1/18,18:00:00,3.245,3.277,2.901
2012/1/18,19:00:00,3.3,3.313,2.9
2012/1/18,20:00:00,3.31,3.388,2.9
2012/1/18,21:00:00,3.389,3.537,2.899
2012/1/18,22:00:00,3.415,3.514,2.898
2012/1/18,23:00:00,3.3,3.455,2.897
2012/1/19,0:00:00,3.41,3.612,2.896
2012/1/19,1:00:00,3.409,3.586,2.896
2012/1/19,2:00:00,3.365,3.504,2.895
2012/1/19,3:00:00,3.33,3.403,2.894
2012/1/19,4:00:00,3.371,3.382,2.893
2012/1/19,5:00:00,3.282,3.267,2.892
2012/1/19,6:00:00,3.193,3.244,2.892
2012/1/19,7:00:00,3.169,3.179,2.891
2012/1/19,8:00:00,3.182,3.221,2.89
2012/1/19,9:00:00,3.141,3.178,2.889
2012/1/19,10:00:00,3.206,3.209,2.889
2012/1/19,11:00:00,3.259,3.252,2.888
2012/1/19,12:00:00,3.288,3.282,2.887
2012/1/19,13:00:00,3.338,3.3,2.887
2012/1/19,14:00:00,3.419,3.466,2.886
2012/1/19,15:00:00,3.544,3.546,2.886
2012/1/19,16:00:00,4.205,4.197,2.885
2012/1/19,17:00:00,4.286,4.03,2.884
2012/1/19,18:00:00,4.187,4.014,2.884
2012/1/19,19:00:00,4.096,3.956,2.883
2012/1/19,20:00:00,4.089,4.031,2.882
2012/1/19,21:00:00,4.14,4.104,2.882
2012/1/19,22:00:00,4.073,4.1,2.881
2012/1/19,23:00:00,4.105,4.125,2.881
2012/1/20,0:00:00,4.017,4.097,2.881
2012/1/20,1:00:00,3.989,4.013,2.88
2012/1/20,2:00:00,3.789,3.884,2.879
2012/1/20,3:00:00,3.79,3.796,2.879
2012/1/20,4:00:00,3.71,3.77,2.879
2012/1/20,5:00:00,3.669,3.776,2.878
2012/1/20,6:00:00,3.651,3.726,2.878
2012/1/20,7:00:00,3.66,3.644,2.878
2012/1/20,8:00:00,3.636,3.686,2.877
2012/1/20,9:00:00,3.715,3.649,2.877
2012/1/20,10:00:00,3.728,3.664,2.876
2012/1/20,11:00:00,3.793,3.714,2.876
2012/1/20,12:00:00,3.902,3.842,2.876
2012/1/20,13:00:00,3.966,3.96,2.876
2012/1/20,14:00:00,4.432,4.07,2.876
2012/1/20,15:00:00,4.435,4.287,2.875
2012/1/20,16:00:00,4.655,4.406,2.875
2012/1/20,17:00:00,4.595,4.291,2.875
2012/1/20,18:00:00,4.56,4.315,2.875
2012/1/20,19:00:00,4.792,4.774,2.875
2012/1/20,20:00:00,4.781,4.666,2.875
2012/1/20,21:00:00,4.77,4.596,2.875
2012/1/20,22:00:00,4.731,4.547,2.875
2012/1/20,23:00:00,4.706,4.605,2.875
2012/1/21,0:00:00,4.725,4.452,2.875
2012/1/21,1:00:00,4.632,4.531,2.875
2012/1/21,2:00:00,4.564,4.629,2.875
2012/1/21,3:00:00,4.535,4.486,2.875
2012/1/21,4:00:00,4.488,4.498,2.876
2012/1/21,5:00:00,4.449,4.486,2.876
2012/1/21,6:00:00,4.433,4.455,2.876
2012/1/21,7:00:00,4.422,4.242,2.876
2012/1/21,8:00:00,4.348,4.276,2.876
2012/1/21,9:00:00,4.295,4.228,2.876
2012/1/21,10:00:00,4.509,4.442,2.877
2012/1/21,11:00:00,4.548,4.367,2.878
2012/1/21,12:00:00,4.59,4.587,2.878
2012/1/21,13:00:00,4.924,4.641,2.878
2012/1/21,14:00:00,5.127,4.84,2.879
2012/1/21,15:00:00,5.346,4.921,2.879
2012/1/21,16:00:00,5.417,5.083,2.879
2012/1/21,17:00:00,5.456,5.126,2.88
2012/1/21,18:00:00,5.657,5.344,2.881
2012/1/21,19:00:00,5.443,5.266,2.881
2012/1/21,20:00:00,5.411,5.257,2.882
2012/1/21,21:00:00,5.364,5.034,2.882
2012/1/21,22:00:00,5.162,4.999,2.883
2012/1/21,23:00:00,5.152,5.117,2.884
2012/1/22,0:00:00,5.084,5.019,2.884
2012/1/22,1:00:00,4.989,4.955,2.885
2012/1/22,2:00:00,4.931,4.812,2.886
2012/1/22,3:00:00,4.835,4.759,2.887
2012/1/22,4:00:00,4.777,4.752,2.888
2012/1/22,5:00:00,4.71,4.706,2.888
2012/1/22,6:00:00,4.47,4.361,2.889
2012/1/22,7:00:00,4.521,4.543,2.89
2012/1/22,8:00:00,4.616,4.496,2.891
2012/1/22,9:00:00,4.672,4.657,2.892
2012/1/22,10:00:00,4.663,4.595,2.893
2012/1/22,11:00:00,4.779,4.71,2.894
2012/1/22,12:00:00,5.322,4.915,2.895
2012/1/22,13:00:00,5.459,4.965,2.896
2012/1/22,14:00:00,5.586,4.968,2.897
2012/1/22,15:00:00,5.769,5.057,2.898
2012/1/22,16:00:00,5.925,5.196,2.899
2012/1/22,17:00:00,6.003,5.275,2.901
2012/1/22,18:00:00,5.976,5.612,2.901
2012/1/22,19:00:00,5.958,5.561,2.903
2012/1/22,20:00:00,5.805,5.497,2.904
2012/1/22,21:00:00,5.749,5.372,2.905
2012/1/22,22:00:00,5.644,5.577,2.907
2012/1/22,23:00:00,5.511,5.181,2.908
2012/1/23,0:00:00,5.403,5.195,2.909
2012/1/23,1:00:00,5.249,5.222,2.911
2012/1/23,2:00:00,5.138,5.025,2.912
2012/1/23,3:00:00,4.911,4.928,2.914
2012/1/23,4:00:00,4.818,4.852,2.915
2012/1/23,5:00:00,4.731,4.685,2.917
2012/1/23,6:00:00,4.646,4.639,2.918
2012/1/23,7:00:00,4.557,4.551,2.92
2012/1/23,8:00:00,4.591,4.544,2.921
2012/1/23,9:00:00,4.589,4.553,2.923
2012/1/23,10:00:00,4.583,4.584,2.925
2012/1/23,11:00:00,4.619,4.594,2.926
2012/1/23,12:00:00,4.628,4.606,2.928
2012/1/23,13:00:00,4.651,4.627,2.929
2012/1/23,14:00:00,4.664,4.64,2.931
2012/1/23,15:00:00,4.691,4.642,2.933
2012/1/23,16:00:00,4.742,4.65,2.934
2012/1/23,17:00:00,4.797,4.789,2.936
2012/1/23,18:00:00,4.817,4.822,2.937
2012/1/23,19:00:00,4.856,4.869,2.94
2012/1/23,20:00:00,4.884,4.864,2.941
2012/1/23,21:00:00,4.841,4.819,2.943
2012/1/23,22:00:00,4.775,4.809,2.945
2012/1/23,23:00:00,4.737,4.776,2.947
2012/1/24,0:00:00,4.689,4.741,2.948
2012/1/24,1:00:00,4.68,4.704,2.95
2012/1/24,2:00:00,4.659,4.648,2.952
2012/1/24,3:00:00,4.584,4.585,2.954
2012/1/24,4:00:00,4.521,4.522,2.956
2012/1/24,5:00:00,4.479,4.497,2.958
2012/1/24,6:00:00,4.428,4.464,2.96
2012/1/24,7:00:00,4.431,4.425,2.962
2012/1/24,8:00:00,4.383,4.369,2.964
2012/1/24,9:00:00,4.35,4.331,2.966
2012/1/24,10:00:00,4.346,4.273,2.968
2012/1/24,11:00:00,4.407,4.217,2.97
2012/1/24,12:00:00,4.479,4.232,2.972
2012/1/24,13:00:00,4.675,4.36,2.973
2012/1/24,14:00:00,4.932,4.663,2.976
2012/1/24,15:00:00,4.881,4.285,2.977
2012/1/24,16:00:00,4.838,4.358,2.979
2012/1/24,17:00:00,4.983,4.309,2.981
2012/1/24,18:00:00,5.491,5.333,2.983
2012/1/24,19:00:00,5.564,4.727,2.985
2012/1/24,20:00:00,5.655,5.323,2.987
2012/1/24,21:00:00,5.489,5.054,2.99
2012/1/24,22:00:00,5.366,4.812,2.992
2012/1/24,23:00:00,5.238,4.748,2.994
2012/1/25,0:00:00,5.135,4.946,2.996
2012/1/25,1:00:00,5.014,4.835,2.998
2012/1/25,2:00:00,4.946,4.61,3
2012/1/25,3:00:00,4.953,4.711,3.002
2012/1/25,4:00:00,4.837,4.62,3.004
2012/1/25,5:00:00,4.814,4.636,3.006
2012/1/25,6:00:00,4.744,4.747,3.008
2012/1/25,7:00:00,4.726,4.608,3.01
2012/1/25,8:00:00,4.697,4.623,3.012
2012/1/25,9:00:00,4.758,4.667,3.014
2012/1/25,10:00:00,4.817,4.751,3.016
2012/1/25,11:00:00,4.988,4.804,3.018
2012/1/25,12:00:00,5.04,4.839,3.02
2012/1/25,13:00:00,5.184,5.007,3.022
2012/1/25,14:00:00,5.375,5.058,3.024
2012/1/25,15:00:00,5.556,5.28,3.026
2012/1/25,16:00:00,5.541,5.475,3.028
2012/1/25,17:00:00,5.482,5.412,3.03
2012/1/25,18:00:00,5.453,5.259,3.031
2012/1/25,19:00:00,5.441,4.951,3.033
2012/1/25,20:00:00,5.429,5.05,3.035
2012/1/25,21:00:00,5.384,5.127,3.037
2012/1/25,22:00:00,5.234,5.286,3.039
2012/1/25,23:00:00,5.083,5.061,3.041
2012/1/26,0:00:00,4.982,5.016,3.042
2012/1/26,1:00:00,4.911,4.901,3.045
2012/1/26,2:00:00,4.719,4.729,3.047
2012/1/26,3:00:00,4.601,4.606,3.048
2012/1/26,4:00:00,4.511,4.514,3.05
2012/1/26,5:00:00,4.386,4.394,3.052
2012/1/26,6:00:00,4.305,4.309,3.054
2012/1/26,7:00:00,4.186,4.186,3.056
2012/1/26,8:00:00,4.195,4.208,3.057
2012/1/26,9:00:00,4.107,4.111,3.059
2012/1/26,10:00:00,4.067,4.074,3.061
2012/1/26,11:00:00,4.1,4.11,3.063
2012/1/26,12:00:00,4.124,4.127,3.065
2012/1/26,13:00:00,4.142,4.149,3.067
2012/1/26,14:00:00,4.159,4.163,3.068
2012/1/26,15:00:00,4.177,4.181,3.07
2012/1/26,16:00:00,4.171,4.181,3.072
2012/1/26,17:00:00,4.166,4.176,3.074
2012/1/26,18:00:00,4.149,4.165,3.076
2012/1/26,19:00:00,4.114,4.125,3.078
2012/1/26,20:00:00,4.088,4.111,3.079
2012/1/26,21:00:00,4.052,4.07,3.081
2012/1/26,22:00:00,3.966,3.995,3.083
2012/1/26,23:00:00,3.908,3.917,3.085
2012/1/27,0:00:00,3.791,3.78,3.087
2012/1/27,1:00:00,3.752,3.783,3.089
2012/1/27,2:00:00,3.716,3.728,3.091
2012/1/27,3:00:00,3.549,3.501,3.092
2012/1/27,4:00:00,3.479,3.485,3.094
2012/1/27,5:00:00,3.384,3.383,3.096
2012/1/27,6:00:00,3.283,3.267,3.097
2012/1/27,7:00:00,3.147,3.154,3.099
2012/1/27,8:00:00,3.051,3.059,3.101
2012/1/27,9:00:00,2.966,2.957,3.103
2012/1/27,10:00:00,2.884,2.899,3.105
2012/1/27,11:00:00,2.808,2.806,3.106
2012/1/27,12:00:00,2.737,2.736,3.108
2012/1/27,13:00:00,2.663,2.665,3.11
2012/1/27,14:00:00,2.615,2.637,3.111
2012/1/27,15:00:00,2.559,2.568,3.113
2012/1/27,16:00:00,2.501,2.513,3.115
2012/1/27,17:00:00,2.484,2.504,3.116
2012/1/27,18:00:00,2.429,2.439,3.118
2012/1/27,19:00:00,2.357,2.376,3.12
2012/1/27,20:00:00,2.317,2.33,3.121
2012/1/27,21:00:00,2.198,2.199,3.122
2012/1/27,22:00:00,2.085,2.089,3.124
2012/1/27,23:00:00,1.997,1.988,3.125
2012/1/28,0:00:00,1.929,1.941,3.127
2012/1/28,1:00:00,1.839,1.846,3.129
2012/1/28,2:00:00,1.78,1.797,3.13
2012/1/28,3:00:00,1.703,1.709,3.131
2012/1/28,4:00:00,1.607,1.603,3.133
2012/1/28,5:00:00,1.556,1.564,3.134
2012/1/28,6:00:00,1.46,1.481,3.136
2012/1/28,7:00:00,1.438,1.444,3.137
2012/1/28,8:00:00,1.428,1.441,3.138
2012/1/28,9:00:00,1.391,1.382,3.14
2012/1/28,10:00:00,1.41,1.421,3.141
2012/1/28,11:00:00,1.436,1.444,3.142
2012/1/28,12:00:00,1.486,1.47,3.143
2012/1/28,13:00:00,1.529,1.522,3.144
2012/1/28,14:00:00,1.555,1.568,3.145
2012/1/28,15:00:00,1.622,1.637,3.146
2012/1/28,16:00:00,1.754,1.759,3.146
2012/1/28,17:00:00,1.803,1.831,3.147
2012/1/28,18:00:00,1.863,1.888,3.148
2012/1/28,19:00:00,1.928,1.912,3.149
2012/1/28,20:00:00,1.976,2.011,3.149
2012/1/28,21:00:00,2.006,2.019,3.15
2012/1/28,22:00:00,1.998,2.067,3.151
2012/1/28,23:00:00,1.985,2.032,3.151
2012/1/29,0:00:00,2.014,2.087,3.151
2012/1/29,1:00:00,2.017,2.05,3.152
2012/1/29,2:00:00,1.922,2.086,3.152
2012/1/29,3:00:00,1.993,2.09,3.152
2012/1/29,4:00:00,1.887,2.005,3.152
2012/1/29,5:00:00,1.815,2.04,3.152
2012/1/29,6:00:00,1.785,1.825,3.152
2012/1/29,7:00:00,1.705,1.918,3.152
2012/1/29,8:00:00,1.688,1.772,3.152
2012/1/29,9:00:00,1.72,1.886,3.152
2012/1/29,10:00:00,1.763,1.807,3.152
2012/1/29,11:00:00,1.834,1.795,3.151
2012/1/29,12:00:00,1.894,1.872,3.151
2012/1/29,13:00:00,1.923,1.951,3.15
2012/1/29,14:00:00,1.991,2.027,3.15
2012/1/29,15:00:00,2.042,2.093,3.149
2012/1/29,16:00:00,2.125,2.171,3.148
2012/1/29,17:00:00,2.212,2.319,3.147
2012/1/29,18:00:00,2.318,2.33,3.147
2012/1/29,19:00:00,2.372,2.391,3.146
2012/1/29,20:00:00,2.453,2.422,3.145
2012/1/29,21:00:00,2.439,2.42,3.144
2012/1/29,22:00:00,2.424,2.487,3.143
2012/1/29,23:00:00,2.401,2.501,3.142
2012/1/30,0:00:00,2.328,2.339,3.141
2012/1/30,1:00:00,2.23,2.325,3.14
2012/1/30,2:00:00,2.193,2.313,3.138
2012/1/30,3:00:00,2.105,2.25,3.137
2012/1/30,4:00:00,2.01,2.055,3.136
2012/1/30,5:00:00,1.814,1.97,3.135
2012/1/30,6:00:00,1.9,2.007,3.133
2012/1/30,7:00:00,1.929,1.914,3.132
2012/1/30,8:00:00,1.873,1.884,3.13
2012/1/30,9:00:00,1.932,1.929,3.129
2012/1/30,10:00:00,2.014,2.03,3.128
2012/1/30,11:00:00,2.021,2.034,3.127
2012/1/30,12:00:00,2.057,2.052,3.125
2012/1/30,13:00:00,2.084,2.105,3.123
2012/1/30,14:00:00,2.148,2.136,3.122
2012/1/30,15:00:00,2.347,2.334,3.12
2012/1/30,16:00:00,2.213,2.219,3.118
2012/1/30,17:00:00,2.228,2.235,3.117
2012/1/30,18:00:00,2.194,2.207,3.115
2012/1/30,19:00:00,2.147,2.153,3.113
2012/1/30,20:00:00,2.095,2.113,3.112
2012/1/30,21:00:00,2.035,2.041,3.11
2012/1/30,22:00:00,1.988,1.996,3.108
2012/1/30,23:00:00,1.922,1.919,3.107
2012/1/31,0:00:00,1.865,1.882,3.105
2012/1/31,1:00:00,1.79,1.787,3.103
2012/1/31,2:00:00,1.737,1.746,3.102
2012/1/31,3:00:00,1.699,1.706,3.1
2012/1/31,4:00:00,1.692,1.712,3.098
2012/1/31,5:00:00,1.682,1.69,3.096
2012/1/31,6:00:00,1.664,1.673,3.094
2012/1/31,7:00:00,1.663,1.677,3.093
2012/1/31,8:00:00,1.666,1.681,3.091
2012/1/31,9:00:00,1.641,1.672,3.089
2012/1/31,10:00:00,1.648,1.652,3.088
2012/1/31,11:00:00,1.708,1.682,3.085
2012/1/31,12:00:00,1.751,1.731,3.084
2012/1/31,13:00:00,1.727,1.777,3.082
2012/1/31,14:00:00,1.765,1.844,3.08
2012/1/31,15:00:00,1.884,1.978,3.078
2012/1/31,16:00:00,1.938,1.885,3.077
2012/1/31,17:00:00,2.007,2.1,3.075
2012/1/31,18:00:00,2.015,2.182,3.073
2012/1/31,19:00:00,2.048,2.266,3.071
2012/1/31,20:00:00,1.994,2.047,3.069
2012/1/31,21:00:00,2.032,2.153,3.067
2012/1/31,22:00:00,2.022,2.356,3.065
2012/1/31,23:00:00,2.027,2.27,3.063
2012/2/1,0:00:00,1.945,2.077,3.061
2012/2/1,1:00:00,1.914,2.345,3.059
2012/2/1,2:00:00,1.944,2.343,3.057
2012/2/1,3:00:00,1.995,2.171,3.056
2012/2/1,4:00:00,2.07,2.308,3.054
2012/2/1,5:00:00,2.021,2.244,3.052
2012/2/1,6:00:00,1.997,2.218,3.05
2012/2/1,7:00:00,2.032,2.289,3.048
2012/2/1,8:00:00,1.959,2.236,3.046
2012/2/1,9:00:00,1.777,2.124,3.044
2012/2/1,10:00:00,1.82,2.167,3.042
2012/2/1,11:00:00,1.85,2.156,3.04
2012/2/1,12:00:00,1.879,2.27,3.038
2012/2/1,13:00:00,1.982,2.177,3.036
2012/2/1,14:00:00,2.026,2.044,3.034
2012/2/1,15:00:00,2.059,2.153,3.032
2012/2/1,16:00:00,2.097,2.108,3.03
2012/2/1,17:00:00,2.142,2.208,3.028
2012/2/1,18:00:00,2.133,2.192,3.026
2012/2/1,19:00:00,2.117,2.188,3.024
2012/2/1,20:00:00,2.13,2.201,3.022
2012/2/1,21:00:00,2.138,2.191,3.02
2012/2/1,22:00:00,2.128,2.143,3.017
2012/2/1,23:00:00,2.079,2.091,3.016
2012/2/2,0:00:00,2.024,2.126,3.014
2012/2/2,1:00:00,2.05,2.191,3.011
2012/2/2,2:00:00,2.015,2.142,3.01
2012/2/2,3:00:00,1.994,2.127,3.008
2012/2/2,4:00:00,1.939,2.126,3.005
2012/2/2,5:00:00,1.959,1.983,3.004
2012/2/2,6:00:00,1.755,1.855,3.002
2012/2/2,7:00:00,1.777,1.942,3
2012/2/2,8:00:00,1.846,2.018,2.998
2012/2/2,9:00:00,1.793,1.818,2.996
2012/2/2,10:00:00,1.824,1.833,2.994
2012/2/2,11:00:00,1.966,1.962,2.992
2012/2/2,12:00:00,2.061,2.053,2.99
2012/2/2,13:00:00,2.141,2.159,2.988
2012/2/2,14:00:00,2.236,2.269,2.986
2012/2/2,15:00:00,2.304,2.434,2.984
2012/2/2,16:00:00,2.478,2.625,2.982
2012/2/2,17:00:00,2.565,2.811,2.98
2012/2/2,18:00:00,2.668,2.829,2.979
2012/2/2,19:00:00,2.776,2.928,2.977
2012/2/2,20:00:00,2.812,2.941,2.975
2012/2/2,21:00:00,2.788,3.027,2.973
2012/2/2,22:00:00,2.842,2.977,2.972
2012/2/2,23:00:00,2.829,2.83,2.969
2012/2/3,0:00:00,2.658,2.749,2.968
2012/2/3,1:00:00,2.662,2.765,2.966
2012/2/3,2:00:00,2.627,2.798,2.964
2012/2/3,3:00:00,2.572,2.796,2.962
2012/2/3,4:00:00,2.466,2.724,2.96
2012/2/3,5:00:00,2.227,2.268,2.959
2012/2/3,6:00:00,2.135,2.651,2.957
2012/2/3,7:00:00,2.128,2.265,2.955
2012/2/3,8:00:00,2.08,2.425,2.954
2012/2/3,9:00:00,1.992,2.54,2.952
2012/2/3,10:00:00,2.199,2.514,2.95
2012/2/3,11:00:00,2.405,2.657,2.948
2012/2/3,12:00:00,2.502,2.572,2.946
2012/2/3,13:00:00,2.664,2.638,2.945
2012/2/3,14:00:00,2.647,2.714,2.943
2012/2/3,15:00:00,2.821,2.937,2.941
2012/2/3,16:00:00,2.858,2.987,2.94
2012/2/3,17:00:00,3.003,3.108,2.938
2012/2/3,18:00:00,3.046,3.111,2.937
2012/2/3,19:00:00,3.062,3.109,2.935
2012/2/3,20:00:00,3.262,3.258,2.934
2012/2/3,21:00:00,3.202,3.186,2.932
2012/2/3,22:00:00,3.136,3.207,2.931
2012/2/3,23:00:00,3.115,3.216,2.929
2012/2/4,0:00:00,3.108,3.108,2.927
2012/2/4,1:00:00,3.056,3.139,2.926
2012/2/4,2:00:00,3.037,3.113,2.924
2012/2/4,3:00:00,2.985,3.138,2.923
2012/2/4,4:00:00,3.016,3.128,2.922
2012/2/4,5:00:00,2.814,3.16,2.92
2012/2/4,6:00:00,2.888,2.88,2.919
2012/2/4,7:00:00,2.882,2.9,2.917
2012/2/4,8:00:00,2.879,2.995,2.916
2012/2/4,9:00:00,2.877,2.885,2.915
2012/2/4,10:00:00,2.891,2.863,2.913
2012/2/4,11:00:00,2.973,2.885,2.912
2012/2/4,12:00:00,3.062,3.05,2.911
2012/2/4,13:00:00,3.185,3.172,2.909
2012/2/4,14:00:00,3.25,3.227,2.908
2012/2/4,15:00:00,3.409,3.379,2.907
2012/2/4,16:00:00,3.473,3.414,2.906
2012/2/4,17:00:00,3.571,3.542,2.905
2012/2/4,18:00:00,3.634,3.64,2.903
2012/2/4,19:00:00,3.681,3.714,2.902
2012/2/4,20:00:00,3.675,3.709,2.901
2012/2/4,21:00:00,3.626,3.694,2.9
2012/2/4,22:00:00,3.637,3.683,2.899
2012/2/4,23:00:00,3.516,3.634,2.898
2012/2/5,0:00:00,3.504,3.558,2.897
2012/2/5,1:00:00,3.444,3.531,2.896
2012/2/5,2:00:00,3.38,3.495,2.895
2012/2/5,3:00:00,3.378,3.47,2.894
2012/2/5,4:00:00,3.053,3.47,2.893
2012/2/5,5:00:00,3.126,3.457,2.892
2012/2/5,6:00:00,2.896,2.911,2.892
2012/2/5,7:00:00,2.792,2.941,2.891
2012/2/5,8:00:00,2.69,2.837,2.89
2012/2/5,9:00:00,2.69,2.796,2.889
2012/2/5,10:00:00,2.774,2.783,2.888
2012/2/5,11:00:00,2.803,2.959,2.888
2012/2/5,12:00:00,2.977,3.105,2.887
2012/2/5,13:00:00,3.151,3.096,2.886
2012/2/5,14:00:00,3.156,3.182,2.886
2012/2/5,15:00:00,3.263,3.265,2.885
2012/2/5,16:00:00,3.298,3.3,2.884
2012/2/5,17:00:00,3.411,3.414,2.884
2012/2/5,18:00:00,3.469,3.609,2.883
2012/2/5,19:00:00,3.553,3.565,2.882
2012/2/5,20:00:00,3.609,3.599,2.882
2012/2/5,21:00:00,3.572,3.606,2.881
2012/2/5,22:00:00,3.508,3.659,2.881
2012/2/5,23:00:00,3.331,3.588,2.88
2012/2/6,0:00:00,3.181,3.477,2.88
2012/2/6,1:00:00,3.345,3.566,2.88
2012/2/6,2:00:00,3.372,3.476,2.879
2012/2/6,3:00:00,3.355,3.414,2.879
2012/2/6,4:00:00,3.069,3.433,2.879
2012/2/6,5:00:00,2.952,2.939,2.878
2012/2/6,6:00:00,2.686,2.904,2.878
2012/2/6,7:00:00,2.636,2.896,2.878
2012/2/6,8:00:00,2.672,2.992,2.878
2012/2/6,9:00:00,2.715,2.997,2.877
2012/2/6,10:00:00,2.611,2.734,2.877
2012/2/6,11:00:00,2.667,2.916,2.877
2012/2/6,12:00:00,2.824,2.817,2.876
2012/2/6,13:00:00,2.915,3.029,2.876
2012/2/6,14:00:00,3.164,3.123,2.876
2012/2/6,15:00:00,3.185,3.159,2.876
2012/2/6,16:00:00,3.243,3.308,2.876
2012/2/6,17:00:00,3.368,3.439,2.876
2012/2/6,18:00:00,3.384,3.455,2.876
2012/2/6,19:00:00,3.38,3.509,2.875
2012/2/6,20:00:00,3.443,3.438,2.875
2012/2/6,21:00:00,3.35,3.42,2.875
2012/2/6,22:00:00,3.316,3.392,2.875
2012/2/6,23:00:00,3.305,3.42,2.875
2012/2/7,0:00:00,3.075,3.407,2.875
2012/2/7,1:00:00,2.839,3.141,2.875
2012/2/7,2:00:00,2.463,2.869,2.876
2012/2/7,3:00:00,2.529,2.942,2.875
2012/2/7,4:00:00,2.13,2.837,2.875
2012/2/7,5:00:00,2.089,2.535,2.875
2012/2/7,6:00:00,2.142,2.48,2.875
2012/2/7,7:00:00,2.244,2.559,2.875
2012/2/7,8:00:00,2.203,2.499,2.875
2012/2/7,9:00:00,2.223,2.422,2.876
2012/2/7,10:00:00,2.268,2.529,2.875
2012/2/7,11:00:00,2.33,2.433,2.876
2012/2/7,12:00:00,2.411,2.459,2.876
2012/2/7,13:00:00,2.465,2.568,2.876
2012/2/7,14:00:00,2.592,2.704,2.876
2012/2/7,15:00:00,2.651,2.629,2.876
2012/2/7,16:00:00,2.677,2.671,2.876
2012/2/7,17:00:00,2.68,2.742,2.876
2012/2/7,18:00:00,2.687,2.693,2.877
2012/2/7,19:00:00,2.702,2.705,2.877
2012/2/7,20:00:00,2.706,2.722,2.877
2012/2/7,21:00:00,2.697,2.721,2.877
2012/2/7,22:00:00,2.655,2.722,2.877
2012/2/7,23:00:00,2.566,2.647,2.877
2012/2/8,0:00:00,2.493,2.574,2.878
2012/2/8,1:00:00,2.403,2.555,2.878
2012/2/8,2:00:00,2.38,2.529,2.878
2012/2/8,3:00:00,2.297,2.414,2.878
2012/2/8,4:00:00,2.302,2.591,2.878
2012/2/8,5:00:00,2.375,2.608,2.878
2012/2/8,6:00:00,2.409,2.594,2.879
2012/2/8,7:00:00,2.407,2.539,2.879
2012/2/8,8:00:00,2.378,2.48,2.879
2012/2/8,9:00:00,2.315,2.568,2.879
2012/2/8,10:00:00,2.37,2.604,2.879
2012/2/8,11:00:00,2.4,2.579,2.879
2012/2/8,12:00:00,2.459,2.581,2.88
2012/2/8,13:00:00,2.501,2.574,2.88
2012/2/8,14:00:00,2.56,2.635,2.88
2012/2/8,15:00:00,2.618,2.615,2.88
2012/2/8,16:00:00,2.669,2.643,2.88
2012/2/8,17:00:00,2.73,2.684,2.88
2012/2/8,18:00:00,2.756,2.761,2.88
2012/2/8,19:00:00,2.788,2.8,2.88
2012/2/8,20:00:00,2.814,2.806,2.88
2012/2/8,21:00:00,2.783,2.796,2.88
2012/2/8,22:00:00,2.696,2.784,2.881
2012/2/8,23:00:00,2.717,2.819,2.881
2012/2/9,0:00:00,2.602,2.819,2.881
2012/2/9,1:00:00,2.527,2.576,2.88
2012/2/9,2:00:00,2.565,2.803,2.88
2012/2/9,3:00:00,2.605,2.836,2.88
2012/2/9,4:00:00,2.521,2.786,2.88
2012/2/9,5:00:00,2.622,2.808,2.88
2012/2/9,6:00:00,2.654,2.783,2.881
2012/2/9,7:00:00,2.462,2.769,2.88
2012/2/9,8:00:00,2.423,2.831,2.88
2012/2/9,9:00:00,2.474,2.847,2.88
2012/2/9,10:00:00,2.416,2.222,2.88
2012/2/9,11:00:00,2.424,2.539,2.88
2012/2/9,12:00:00,2.561,2.546,2.879
2012/2/9,13:00:00,2.525,2.6,2.88
2012/2/9,14:00:00,2.656,2.673,2.879
2012/2/9,15:00:00,2.712,2.754,2.879
2012/2/9,16:00:00,2.848,2.795,2.879
2012/2/9,17:00:00,2.804,2.843,2.879
2012/2/9,18:00:00,2.866,3.024,2.878
2012/2/9,19:00:00,3.021,3.007,2.878
2012/2/9,20:00:00,3.122,3.118,2.878
2012/2/9,21:00:00,3.022,3.02,2.877
2012/2/9,22:00:00,2.947,2.993,2.877
2012/2/9,23:00:00,2.97,3.129,2.877
2012/2/10,0:00:00,3.028,3.143,2.876
2012/2/10,1:00:00,2.849,3.125,2.877
2012/2/10,2:00:00,2.8,3.116,2.876
2012/2/10,3:00:00,2.702,3.086,2.876
2012/2/10,4:00:00,2.695,3.052,2.876
2012/2/10,5:00:00,2.697,3.057,2.875
2012/2/10,6:00:00,2.578,2.494,2.875
2012/2/10,7:00:00,2.279,2.493,2.875
2012/2/10,8:00:00,2.308,2.85,2.874
2012/2/10,9:00:00,2.269,2.459,2.874
2012/2/10,10:00:00,2.293,2.67,2.874
2012/2/10,11:00:00,2.404,2.493,2.873
2012/2/10,12:00:00,2.446,2.51,2.873
2012/2/10,13:00:00,2.507,2.635,2.873
2012/2/10,14:00:00,2.569,2.68,2.872
2012/2/10,15:00:00,2.641,2.678,2.871
2012/2/10,16:00:00,2.705,2.74,2.872
2012/2/10,17:00:00,2.809,2.801,2.871
2012/2/10,18:00:00,2.845,2.852,2.871
2012/2/10,19:00:00,2.846,2.89,2.871
2012/2/10,20:00:00,2.852,2.918,2.87
2012/2/10,21:00:00,2.873,2.924,2.87
2012/2/10,22:00:00,2.744,2.879,2.869
2012/2/10,23:00:00,2.681,2.836,2.869
2012/2/11,0:00:00,2.675,2.834,2.869
2012/2/11,1:00:00,2.746,2.889,2.868
2012/2/11,2:00:00,2.768,2.91,2.868
2012/2/11,3:00:00,2.7,2.734,2.868
2012/2/11,4:00:00,2.596,2.775,2.867
2012/2/11,5:00:00,2.489,2.574,2.867
2012/2/11,6:00:00,2.454,2.645,2.867
2012/2/11,7:00:00,2.424,2.507,2.866
2012/2/11,8:00:00,2.438,2.714,2.865
2012/2/11,9:00:00,2.411,2.638,2.865
2012/2/11,10:00:00,2.472,2.643,2.865
2012/2/11,11:00:00,2.582,2.748,2.865
2012/2/11,12:00:00,2.562,2.717,2.865
2012/2/11,13:00:00,2.569,2.671,2.864
2012/2/11,14:00:00,2.558,2.623,2.864
2012/2/11,15:00:00,2.552,2.569,2.863
2012/2/11,16:00:00,2.512,2.544,2.863
2012/2/11,17:00:00,2.489,2.73,2.863
2012/2/11,18:00:00,2.322,2.623,2.862
2012/2/11,19:00:00,2.355,2.551,2.862
2012/2/11,20:00:00,2.276,2.646,2.862
2012/2/11,21:00:00,2.315,2.72,2.861
2012/2/11,22:00:00,2.104,2.569,2.861
2012/2/11,23:00:00,2.271,2.699,2.861
2012/2/12,0:00:00,2.348,2.65,2.861
2012/2/12,1:00:00,2.315,2.56,2.86
2012/2/12,2:00:00,2.345,2.614,2.86
2012/2/12,3:00:00,2.172,2.509,2.86
2012/2/12,4:00:00,2.095,2.496,2.859
2012/2/12,5:00:00,2.03,2.546,2.859
2012/2/12,6:00:00,1.978,2.61,2.859
2012/2/12,7:00:00,2.07,2.613,2.858
2012/2/12,8:00:00,2.081,2.548,2.858
2012/2/12,9:00:00,2.078,2.252,2.858
2012/2/12,10:00:00,2.083,2.17,2.857
2012/2/12,11:00:00,2.173,2.383,2.857
2012/2/12,12:00:00,2.242,2.616,2.857
2012/2/12,13:00:00,2.363,2.344,2.856
2012/2/12,14:00:00,2.411,2.479,2.856
2012/2/12,15:00:00,2.541,2.684,2.856
2012/2/12,16:00:00,2.622,2.833,2.855
2012/2/12,17:00:00,2.705,2.791,2.855
2012/2/12,18:00:00,2.768,2.771,2.855
2012/2/12,19:00:00,2.767,2.791,2.854
2012/2/12,20:00:00,2.754,2.84,2.854
2012/2/12,21:00:00,2.749,3.024,2.854
2012/2/12,22:00:00,2.78,2.966,2.853
2012/2/12,23:00:00,2.719,2.941,2.853
2012/2/13,0:00:00,2.756,3.162,2.853
2012/2/13,1:00:00,2.673,2.967,2.852
2012/2/13,2:00:00,2.615,2.924,2.852
2012/2/13,3:00:00,2.36,2.412,2.852
2012/2/13,4:00:00,2.178,2.874,2.851